Find Starlink 4590

NORAD ID: 53606 Int'l Des: 2022-104 Owner: SPXS Country: US Constellation: starlink operational
LEOCIRCULAR

实时位置

正在加载3D地球...

关于 Starlink 4590

正在加载描述...

即将过境

Passes for default location (London). Set your location on the main map for personalized predictions.

高度历史

Loading altitude history...

两行轨道根数

1 53606U 22104U 26129.96332767 .00001310 00000-0 10040-3 0 9995
2 53606 53.2180 319.1654 0001287 87.2280 272.8859 15.08832817204881
Epoch: May 9, 2026 • Age: 17 hours

当前状态

高度 559.2 km
速度 7.58 km/s
星下点 -53.35°S, 112.23°E
发射日期 Aug 28, 2022
运行时间 3.6 years
类型 internet

技术详情

分类 Payload
质量 300.00 kg
干质量 290.00 kg
总质量 300.00 kg
长度 0.20 m
直径 2.80 m
跨度 9.00 m
形状 Box + pan
制造商 SPXS
平台类型 Starlink
阶段状态 In Orbit
所有者/国家 SPXS/US

Most Searched